STARLINK-33972, 63893

Orbit data source: Space-Track

STARLINK-33972, 63893 is a payload satellite owned by SpaceX/Seattle (US) in LEO that was launched on Sat, 10 May 2025 UTC via an FALCON 9 launch vehicle from the Air Force Eastern Test Range (AFETR). Payload-class satellites include a variety of spacecraft equipped with specific instruments for various scientific and technological missions. These include communications satellites like Starlink; space stations such as the ISS; scientific satellites like the Hubble; Earth observation satellites from companies like Planet Labs, Umbra, and HawkEye 360; GPS; miniature CubeSats for education and research; and military/defense satellites.

Loading next visibility...
Identifier
63893, 2025-095D
Orbit
LEO
Country
Flag of USUS
Related business
Manufacturer
SpaceX/Seattle
Mission
Operational Commercial Communications
Bus & Motor
STARLINK V2MO, Unknown motor
Mass
575 kg wet, ~530 kg dry
Launch date (UTC)
2025-05-10 (1 year ago)
Launch vehicle
FALCON 9
Launch site
Air Force Eastern Test Range (AFETR)
Object type
Payload
Rocket body
Debris
Shape & HBR
Box + 2 Pan, 17.7 m
Radar Cross Section
36.964 m², Large (>1 m²)

Expand to show TLE details & history
Last TLE update: 9 hours ago

TLE from 9 hours ago
0 STARLINK-33972
1 63893U 25095D   26171.45462620  .00015715  00000-0  57914-3 0  9994
2 63893  42.9971 315.9156 0001072 217.7140 142.3637 15.27593395 63504
Epoch: 2026-06-20T10:54Z
TLE epoch observation values (Epoch: 2026-06-20T10:54:39.703Z)
Latitude
Longitude
-116.41884°
Altitude
483.366 km
Speed
7.625 km/s
True Right ascension
21h 03m 39s
True Declination
0° 00' 00"
Sunlit
Object was in full shadow at epoch
Visualization orbit readout
Latitude
Unknown
Longitude
Unknown
Altitude
Unknown
Speed
Unknown
Apparent Right ascension
Unknown
Apparent Declination
Unknown
Sunlit
N/A
Visualization observer readout
Local Sidereal Time
07:17:44
Azimuth
Unknown
Elevation
Unknown
Doppler factor
Unknown
Orbital elements
Apogee altitude
485.69 km
Perigee altitude
484.219 km
Semi-major axis
6,863.092 km
Eccentricity
0.00011
Inclination
42.9971°
RAAN
315.9156°
Arg. of periapsis
217.714°
True anomaly
142.3712°
Mean anomaly
142.3637°
Eccentric anomaly
142.36745°
Mean motion
3.81736 °/min
Orbital period
94.31 mins
BSTAR
0.00057914
Loading maneuver chart data...
Computing Atmospheric mass density...
Loading historical data...
Loading historical data...
Loading historical data...
Loading historical data...
Loading historical data...
Loading historical data...
Loading historical data...

Documentation

Showing up to 5 results
|